timestamp,wind_dir_avg,wind_spd_avg,wind_spd_max_dir,wind_spd_gust,battery_voltage,lat,long
2022-03-17 00:04:00+00:00,266.0,3.59,263.0,4.17,12.41,47.59359,-54.27349
2022-03-17 00:14:01+00:00,269.0,3.53,273.0,3.95,12.41,47.59359,-54.27349
2022-03-17 00:24:01+00:00,270.0,3.94,276.0,4.39,12.41,47.59359,-54.27349
2022-03-17 00:34:01+00:00,272.0,3.28,277.0,3.68,12.41,47.59359,-54.27349
2022-03-17 00:44:01+00:00,265.0,3.47,268.0,3.97,12.41,47.59359,-54.27349
2022-03-17 00:54:01+00:00,270.0,3.65,270.0,4.57,12.41,47.59359,-54.27349
2022-03-17 01:04:01+00:00,262.0,3.85,261.0,4.52,12.41,47.59359,-54.27349
2022-03-17 01:14:01+00:00,267.0,3.64,272.0,3.96,12.33,47.59359,-54.27349
2022-03-17 01:24:01+00:00,268.0,3.76,270.0,4.41,12.33,47.59359,-54.27349
2022-03-17 01:34:01+00:00,279.0,3.2,288.0,3.87,12.33,47.59359,-54.27349
2022-03-17 01:44:01+00:00,278.0,4.08,279.0,4.71,12.33,47.59359,-54.27349
2022-03-17 01:54:01+00:00,280.0,3.62,295.0,4.02,12.33,47.59359,-54.27349
2022-03-17 02:04:01+00:00,288.0,3.75,274.0,4.32,12.33,47.59359,-54.27349
2022-03-17 02:14:01+00:00,286.0,3.76,290.0,4.24,12.25,47.59359,-54.27349
2022-03-17 02:24:01+00:00,283.0,3.72,288.0,4.08,12.25,47.59359,-54.27349
2022-03-17 02:34:01+00:00,288.0,3.75,290.0,4.41,12.25,47.59359,-54.27349
2022-03-17 02:44:01+00:00,290.0,4.41,292.0,4.84,12.25,47.59359,-54.27349
2022-03-17 02:54:01+00:00,283.0,4.67,283.0,5.08,12.25,47.59359,-54.27349
2022-03-17 03:04:01+00:00,275.0,4.32,275.0,4.81,12.25,47.59359,-54.27349
2022-03-17 03:14:00+00:00,274.0,3.63,277.0,4.13,12.25,47.59359,-54.27349
2022-03-17 03:24:00+00:00,262.0,3.65,261.0,4.29,12.25,47.59359,-54.27349
2022-03-17 03:34:00+00:00,274.0,3.59,276.0,4.16,12.25,47.59359,-54.27349
2022-03-17 03:44:00+00:00,278.0,3.89,270.0,4.69,12.25,47.59359,-54.27349
2022-03-17 03:54:00+00:00,279.0,4.3,279.0,5.0,12.25,47.59359,-54.27349
2022-03-17 04:04:00+00:00,289.0,4.69,294.0,5.5,12.25,47.59359,-54.27349
2022-03-17 04:14:00+00:00,267.0,3.84,270.0,4.2,12.17,47.59359,-54.27349
2022-03-17 04:24:00+00:00,292.0,6.48,292.0,7.19,12.17,47.59359,-54.27349
2022-03-17 04:34:00+00:00,281.0,5.45,279.0,6.96,12.17,47.59359,-54.27349
2022-03-17 04:44:00+00:00,285.0,3.99,279.0,6.52,12.17,47.59359,-54.27349
2022-03-17 04:54:00+00:00,270.0,4.08,272.0,4.61,12.17,47.59359,-54.27349
2022-03-17 05:04:00+00:00,272.0,6.39,269.0,7.61,12.17,47.59359,-54.27349
2022-03-17 05:14:01+00:00,273.0,5.24,272.0,5.72,12.17,47.59359,-54.27349
2022-03-17 05:24:01+00:00,353.0,1.35,359.0,1.63,12.17,47.59359,-54.27349
2022-03-17 05:34:01+00:00,283.0,1.87,265.0,5.13,12.17,47.59359,-54.27349
2022-03-17 05:44:01+00:00,4.0,1.27,14.0,1.79,12.17,47.59359,-54.27349
2022-03-17 05:54:01+00:00,292.0,2.95,287.0,5.41,12.17,47.59359,-54.27349
2022-03-17 06:04:01+00:00,284.0,6.06,288.0,6.81,12.17,47.59359,-54.27349
2022-03-17 06:14:00+00:00,297.0,4.87,300.0,5.45,12.17,47.59359,-54.27349
2022-03-17 06:24:00+00:00,307.0,4.44,302.0,5.54,12.17,47.59359,-54.27349
2022-03-17 06:34:00+00:00,309.0,3.58,298.0,5.65,12.17,47.59359,-54.27349
2022-03-17 06:44:00+00:00,303.0,3.66,294.0,5.38,12.17,47.59359,-54.27349
2022-03-17 06:54:00+00:00,299.0,4.34,291.0,5.65,12.17,47.59359,-54.27349
2022-03-17 07:04:00+00:00,297.0,4.61,300.0,5.13,12.17,47.59359,-54.27349
2022-03-17 07:14:01+00:00,294.0,4.19,300.0,4.67,12.17,47.59359,-54.27349
2022-03-17 07:24:01+00:00,280.0,3.79,287.0,4.23,12.17,47.59359,-54.27349
2022-03-17 07:34:01+00:00,270.0,3.62,269.0,3.85,12.17,47.59359,-54.27349
2022-03-17 07:44:01+00:00,268.0,3.61,271.0,3.91,12.17,47.59359,-54.27349
2022-03-17 07:54:01+00:00,259.0,3.88,259.0,4.34,12.17,47.59359,-54.27349
2022-03-17 08:04:01+00:00,267.0,3.54,273.0,3.87,12.17,47.59359,-54.27349
2022-03-17 08:14:01+00:00,266.0,4.67,265.0,5.28,12.09,47.59359,-54.27349
2022-03-17 08:24:01+00:00,267.0,4.41,267.0,4.98,12.09,47.59359,-54.27349
2022-03-17 08:34:01+00:00,262.0,4.92,263.0,5.54,12.09,47.59359,-54.27349
2022-03-17 08:44:01+00:00,279.0,4.85,271.0,5.66,12.09,47.59359,-54.27349
2022-03-17 08:54:01+00:00,270.0,4.68,273.0,5.55,12.09,47.59359,-54.27349
2022-03-17 09:04:01+00:00,267.0,4.55,261.0,5.47,12.09,47.59359,-54.27349
2022-03-17 09:14:01+00:00,259.0,4.41,257.0,4.93,12.09,47.59359,-54.27349
2022-03-17 09:24:01+00:00,227.0,4.05,235.0,5.6,12.09,47.59359,-54.27349
2022-03-17 09:34:01+00:00,231.0,3.77,230.0,4.34,12.09,47.59359,-54.27349
2022-03-17 09:44:01+00:00,247.0,4.3,241.0,4.81,12.09,47.59359,-54.27349
2022-03-17 09:54:01+00:00,236.0,4.75,240.0,5.52,12.09,47.59359,-54.27349
2022-03-17 10:04:01+00:00,235.0,3.87,232.0,4.45,12.09,47.59359,-54.27349
2022-03-17 10:14:01+00:00,241.0,4.1,243.0,4.53,12.09,47.59359,-54.27349
2022-03-17 10:24:01+00:00,232.0,3.99,230.0,4.53,12.09,47.59359,-54.27349
2022-03-17 10:34:01+00:00,240.0,4.43,233.0,5.2,12.09,47.59359,-54.27349
2022-03-17 10:44:01+00:00,229.0,4.72,233.0,5.32,12.09,47.59359,-54.27349
2022-03-17 10:54:01+00:00,237.0,5.31,239.0,6.09,12.09,47.59359,-54.27349
2022-03-17 11:04:01+00:00,232.0,4.38,239.0,5.75,12.09,47.59359,-54.27349
2022-03-17 11:14:00+00:00,234.0,4.92,237.0,5.6,12.17,47.59359,-54.27349
2022-03-17 11:24:00+00:00,224.0,4.85,221.0,5.44,12.17,47.59359,-54.27349
2022-03-17 11:34:00+00:00,232.0,5.31,232.0,6.25,12.17,47.59359,-54.27349
2022-03-17 11:44:00+00:00,228.0,4.73,220.0,5.82,12.17,47.59359,-54.27349
2022-03-17 11:54:00+00:00,231.0,4.52,227.0,5.51,12.17,47.59359,-54.27349
2022-03-17 12:04:00+00:00,230.0,4.58,228.0,5.5,12.17,47.59359,-54.27349
2022-03-17 12:14:01+00:00,234.0,5.43,239.0,6.24,12.81,47.59359,-54.27349
2022-03-17 12:24:01+00:00,225.0,5.09,227.0,5.95,12.81,47.59359,-54.27349
2022-03-17 12:34:01+00:00,229.0,5.92,226.0,6.8,12.81,47.59359,-54.27349
2022-03-17 12:44:01+00:00,219.0,7.19,226.0,7.7,12.81,47.59359,-54.27349
2022-03-17 12:54:01+00:00,218.0,6.71,219.0,7.31,12.81,47.59359,-54.27349
2022-03-17 13:04:01+00:00,218.0,6.54,215.0,7.42,12.81,47.59359,-54.27349
2022-03-17 13:14:01+00:00,219.0,6.4,231.0,7.25,13.68,47.59359,-54.27349
2022-03-17 13:24:01+00:00,224.0,5.79,234.0,7.56,13.68,47.59359,-54.27349
2022-03-17 13:34:01+00:00,235.0,6.77,240.0,9.2,13.68,47.59359,-54.27349
2022-03-17 13:44:01+00:00,247.0,8.99,245.0,10.22,13.68,47.59359,-54.27349
2022-03-17 13:54:01+00:00,239.0,8.39,242.0,10.25,13.68,47.59359,-54.27349
2022-03-17 14:04:01+00:00,246.0,8.31,249.0,9.81,13.68,47.59359,-54.27349
2022-03-17 14:14:00+00:00,234.0,5.22,255.0,9.23,13.76,47.59359,-54.27349
2022-03-17 14:24:00+00:00,234.0,6.02,249.0,9.73,13.76,47.59359,-54.27349
2022-03-17 14:34:00+00:00,232.0,4.86,236.0,5.54,13.76,47.59359,-54.27349
2022-03-17 14:44:00+00:00,252.0,6.05,260.0,8.93,13.76,47.59359,-54.27349
2022-03-17 14:54:00+00:00,238.0,4.7,235.0,4.95,13.76,47.59359,-54.27349
2022-03-17 15:04:00+00:00,233.0,4.45,233.0,4.77,13.76,47.59359,-54.27349
2022-03-17 15:14:00+00:00,214.0,3.27,223.0,4.15,14.16,47.59359,-54.27349
2022-03-17 15:24:00+00:00,230.0,4.31,233.0,4.81,14.16,47.59359,-54.27349
2022-03-17 15:34:00+00:00,232.0,4.13,232.0,4.75,14.16,47.59359,-54.27349
2022-03-17 15:44:00+00:00,219.0,5.24,220.0,5.73,14.16,47.59359,-54.27349
2022-03-17 15:54:00+00:00,172.0,4.0,160.0,4.59,14.16,47.59359,-54.27349
2022-03-17 16:04:00+00:00,202.0,4.78,207.0,5.23,14.16,47.59359,-54.27349
2022-03-17 16:14:01+00:00,192.0,5.3,206.0,6.34,13.6,47.59359,-54.27349
2022-03-17 16:24:01+00:00,203.0,7.84,203.0,8.23,13.6,47.59359,-54.27349
2022-03-17 16:34:01+00:00,203.0,8.88,204.0,9.29,13.6,47.59359,-54.27349
2022-03-17 16:44:01+00:00,204.0,9.22,216.0,9.84,13.6,47.59359,-54.27349
2022-03-17 16:54:01+00:00,194.0,7.85,202.0,8.59,13.6,47.59359,-54.27349
2022-03-17 17:04:01+00:00,177.0,6.04,178.0,6.7,13.6,47.59359,-54.27349
2022-03-17 17:14:00+00:00,171.0,5.16,204.0,6.18,13.92,47.59359,-54.27349
2022-03-17 17:24:00+00:00,179.0,6.11,201.0,8.42,13.92,47.59359,-54.27349
2022-03-17 17:34:00+00:00,205.0,6.71,206.0,7.65,13.92,47.59359,-54.27349
2022-03-17 17:44:00+00:00,221.0,5.06,234.0,5.88,13.92,47.59359,-54.27349
2022-03-17 17:54:00+00:00,211.0,4.23,221.0,5.09,13.92,47.59359,-54.27349
2022-03-17 18:04:00+00:00,265.0,6.13,266.0,8.14,13.92,47.59359,-54.27349
2022-03-17 18:14:00+00:00,262.0,7.05,258.0,9.8,13.84,47.59359,-54.27349
2022-03-17 18:24:00+00:00,264.0,9.57,264.0,10.05,13.84,47.59359,-54.27349
2022-03-17 18:34:00+00:00,260.0,9.56,261.0,10.18,13.84,47.59359,-54.27349
2022-03-17 18:44:00+00:00,248.0,4.02,248.0,4.41,13.84,47.59359,-54.27349
2022-03-17 18:54:00+00:00,261.0,9.3,263.0,10.29,13.84,47.59359,-54.27349
2022-03-17 19:04:00+00:00,261.0,5.99,257.0,6.75,13.84,47.59359,-54.27349
2022-03-17 19:14:01+00:00,244.0,9.66,246.0,10.75,14.16,47.59359,-54.27349
2022-03-17 19:24:01+00:00,250.0,6.42,252.0,7.12,14.16,47.59359,-54.27349
2022-03-17 19:34:01+00:00,262.0,6.93,267.0,9.85,14.16,47.59359,-54.27349
2022-03-17 19:44:01+00:00,258.0,7.55,254.0,8.98,14.16,47.59359,-54.27349
2022-03-17 19:54:01+00:00,255.0,7.14,264.0,7.72,14.16,47.59359,-54.27349
2022-03-17 20:04:01+00:00,254.0,7.28,260.0,8.1,14.16,47.59359,-54.27349
2022-03-17 21:14:00+00:00,244.0,6.98,250.0,8.98,13.44,47.59359,-54.27349
2022-03-17 21:24:00+00:00,252.0,8.04,253.0,8.89,13.44,47.59359,-54.27349
2022-03-17 21:34:00+00:00,249.0,8.34,249.0,8.97,13.44,47.59359,-54.27349
2022-03-17 21:44:00+00:00,256.0,8.37,259.0,10.51,13.44,47.59359,-54.27349
2022-03-17 21:54:00+00:00,258.0,9.87,257.0,10.39,13.44,47.59359,-54.27349
2022-03-17 22:04:00+00:00,256.0,8.38,266.0,10.27,13.44,47.59359,-54.27349
2022-03-17 22:14:01+00:00,253.0,9.71,254.0,10.32,12.73,47.59359,-54.27349
2022-03-17 22:24:01+00:00,250.0,9.89,252.0,10.47,12.73,47.59359,-54.27349
2022-03-17 22:34:01+00:00,240.0,6.5,249.0,9.68,12.73,47.59359,-54.27349
2022-03-17 22:44:01+00:00,242.0,9.03,248.0,10.99,12.73,47.59359,-54.27349
2022-03-17 22:54:01+00:00,246.0,8.72,250.0,10.31,12.73,47.59359,-54.27349
2022-03-17 23:04:01+00:00,245.0,8.47,243.0,10.04,12.73,47.59359,-54.27349
2022-03-17 23:14:00+00:00,246.0,10.75,244.0,11.53,12.41,47.59359,-54.27349
2022-03-17 23:24:00+00:00,248.0,10.29,250.0,10.93,12.41,47.59359,-54.27349
2022-03-17 23:34:00+00:00,232.0,4.42,234.0,5.34,12.41,47.59359,-54.27349
2022-03-17 23:44:00+00:00,229.0,6.54,243.0,10.04,12.41,47.59359,-54.27349
2022-03-17 23:54:00+00:00,239.0,8.59,243.0,10.7,12.41,47.59359,-54.27349
